Bookmark and Share
Track history (hours):
 

Kenneth Carl

More information available from US FCC via Universal Licensing System and Coast Guard Vessel Documentation Center.

Last reported at 2014-Apr-22 08:26 UTC. Time now 2014-Apr-23 15:39 UTC.
Position N 33°41' W 118°14'.

Length 31 m; draft 3 m.

Type: Ship. MMSI: 367492920.

NotesDate/timePositionNaut miles runAvg speedWind from/ knotsBaromVisibWave heightAir tempDewpointWater temp
2014-Apr-22 08:26N 33°41' W 118°14'8 9.1
2014-Apr-22 07:33N 33°35' W 118°08'0 0.1
2014-Apr-22 06:33N 33°35' W 118°08'0 0.0
2014-Apr-22 05:32N 33°35' W 118°08'0 0.0
2014-Apr-22 04:29N 33°35' W 118°08'0 0.5
2014-Apr-22 03:33N 33°35' W 118°07'10 9.6
2014-Apr-22 02:33N 33°42' W 118°14'2 2.4
2014-Apr-22 01:31N 33°44' W 118°16'0 0.3
2014-Apr-22 00:30N 33°44' W 118°16'1010.2
2014-Apr-21 23:33N 33°36' W 118°09'2 1.9
2014-Apr-21 22:33N 33°35' W 118°08'0 0.0
2014-Apr-21 21:33N 33°35' W 118°08'0 0.0
2014-Apr-21 20:33N 33°35' W 118°08'0 0.0
2014-Apr-21 19:33N 33°35' W 118°08'0 0.0
2014-Apr-21 18:33N 33°35' W 118°08'0 0.1
2014-Apr-21 17:32N 33°35' W 118°08'5 5.4
2014-Apr-21 16:33N 33°39' W 118°12'6 2.1
2014-Apr-21 13:33N 33°44' W 118°16'0 0.0
2014-Apr-21 12:33N 33°44' W 118°16'0 0.0
2014-Apr-21 11:32N 33°44' W 118°16'12 5.5
2014-Apr-21 09:25N 33°35' W 118°08'0 0.0
2014-Apr-21 08:30N 33°35' W 118°08'0 0.0
2014-Apr-21 06:29N 33°35' W 118°08'0 0.0
2014-Apr-21 05:33N 33°35' W 118°08'0 0.0
2014-Apr-21 04:32N 33°35' W 118°08'0 0.1
2014-Apr-21 03:33N 33°35' W 118°08'5 5.2
2014-Apr-21 02:32N 33°39' W 118°12'6 6.4
2014-Apr-21 01:33N 33°44' W 118°16'0 0.0
2014-Apr-21 00:33N 33°44' W 118°16'0 0.0
2014-Apr-20 23:33N 33°44' W 118°16'8 5.8
2014-Apr-20 22:11N 33°38' W 118°10'4 5.7
2014-Apr-20 21:33N 33°35' W 118°08'0 0.0
2014-Apr-20 20:31N 33°35' W 118°08'0 0.1
2014-Apr-20 19:07N 33°35' W 118°08'3 0.9
2014-Apr-20 16:05N 33°37' W 118°09'9 0.6
2014-Apr-20 00:14N 33°44' W 118°16'12 0.6
2014-Apr-19 05:05N 33°35' W 118°08'1 0.0
2014-Apr-17 21:33N 33°34' W 118°07'0 0.2
2014-Apr-17 20:07N 33°34' W 118°07'0 0.0
2014-Apr-17 19:28N 33°34' W 118°07'0 0.0
2014-Apr-17 18:31N 33°34' W 118°07'1 0.5
2014-Apr-17 16:04N 33°35' W 118°08'11 6.5
2014-Apr-17 14:20N 33°44' W 118°16'11 1.2
2014-Apr-17 04:30N 33°35' W 118°08'0 0.0
2014-Apr-17 03:33N 33°35' W 118°08'0 0.0
2014-Apr-17 02:33N 33°35' W 118°08'0 0.0
2014-Apr-17 01:33N 33°35' W 118°08'0 0.0
2014-Apr-17 00:33N 33°35' W 118°08'0 0.0
2014-Apr-16 23:33N 33°35' W 118°08'0 0.0
2014-Apr-16 22:33N 33°35' W 118°08'0 0.0
2014-Apr-16 21:33N 33°35' W 118°08'1 0.6
2014-Apr-16 19:31N 33°34' W 118°07'1 0.7
2014-Apr-16 17:32N 33°35' W 118°07'11 9.7
2014-Apr-16 16:27N 33°43' W 118°16'1 0.6
2014-Apr-16 15:08N 33°44' W 118°16'0 0.1
2014-Apr-16 10:32N 33°44' W 118°16'10 9.0
2014-Apr-16 09:28N 33°36' W 118°10'2 2.4
2014-Apr-16 08:33N 33°35' W 118°08'0 0.0
2014-Apr-16 07:33N 33°35' W 118°08'0 0.0
2014-Apr-16 06:33N 33°35' W 118°08'0 0.1
2014-Apr-16 05:24N 33°35' W 118°08'0 0.1
2014-Apr-16 04:33N 33°35' W 118°08'5 5.2
2014-Apr-16 03:33N 33°39' W 118°11'6 6.4
2014-Apr-16 02:33N 33°44' W 118°16'0 0.0
2014-Apr-16 01:33N 33°44' W 118°16'0 0.0
2014-Apr-16 00:33N 33°44' W 118°16'0 0.0
2014-Apr-15 23:33N 33°44' W 118°16'3 2.8
2014-Apr-15 22:33N 33°42' W 118°14'9 8.8
2014-Apr-15 21:33N 33°35' W 118°08'0 0.1
2014-Apr-15 20:33N 33°35' W 118°08'0 0.0
2014-Apr-15 19:33N 33°35' W 118°08'0 0.3
2014-Apr-15 18:33N 33°35' W 118°07'1 0.5
2014-Apr-15 17:33N 33°34' W 118°07'1 0.6
2014-Apr-15 16:33N 33°34' W 118°07'1 1.3
2014-Apr-15 15:33N 33°35' W 118°08'10 9.7
2014-Apr-15 14:33N 33°43' W 118°15'1 0.3
2014-Apr-15 10:34N 33°42' W 118°14'9 8.7
2014-Apr-15 09:33N 33°35' W 118°08'0 0.2
2014-Apr-15 08:34N 33°35' W 118°08'0 0.0
2014-Apr-15 07:34N 33°35' W 118°08'0 0.1
2014-Apr-15 06:34N 33°35' W 118°08'0 0.1
2014-Apr-15 05:34N 33°35' W 118°08'1 0.6
2014-Apr-15 03:34N 33°34' W 118°07'2 2.2
2014-Apr-15 02:34N 33°36' W 118°09'10 9.8
2014-Apr-15 01:34N 33°43' W 118°16'1 0.9
2014-Apr-15 00:33N 33°44' W 118°16'0 0.0
2014-Apr-14 23:34N 33°44' W 118°16'0 0.0
2014-Apr-14 22:34N 33°44' W 118°16'2 2.2
2014-Apr-14 21:34N 33°42' W 118°15'9 9.4
2014-Apr-14 20:34N 33°35' W 118°08'0 0.1
2014-Apr-14 19:34N 33°35' W 118°08'0 0.0
2014-Apr-14 18:34N 33°35' W 118°08'0 0.0
2014-Apr-14 17:30N 33°35' W 118°08'0 0.1
2014-Apr-14 16:33N 33°35' W 118°08'  

Dump ship's entire track history

sailing weather and tide predictions

Kenneth Carl — WDF8246 — position and weather